Wind_Speed
29 30 29 27 25 25 24 23 23 21 21 20 19 18 18 18 18 18 19 19 19 18 17 16 17 17 18 17 15 14 13 13 12 12 12 11 11 11 11 11 12 12 13 13 13 14 14 15 14 14 15 15 16 16 16 16 17 17 18 18 18 19 19 19 20 20 20 20 20 20 21 21 22 23 23 24 24 24 25 26 27 28 29 29 30
28 29 29 27 27 27 27 27 26 26 25 24 23 22 21 20 20 20 21 21 21 22 22 21 20 20 20 20 18 17 17 16 16 15 14 14 14 13 13 14 13 14 14 14 15 15 16 17 18 18 18 18 19 19 20 20 20 21 21 21 21 21 21 21 21 22 22 22 22 22 22 22 22 23 24 24 24 24 25 25 27 28 29 29 30
29 29 28 27 27 28 29 29 29 29 28 28 27 26 24 23 23 22 22 23 23 24 25 25 24 24 24 23 22 21 20 19 19 18 17 17 17 16 16 16 16 16 16 16 17 17 17 18 19 20 21 21 22 22 23 23 23 24 24 25 25 25 24 24 24 24 24 23 23 23 24 23 22 23 24 23 24 25 25 26 27 28 29 29 29
31 32 30 28 28 28 30 30 31 31 31 31 31 29 28 26 26 25 25 25 25 25 27 28 28 28 27 26 25 24 23 22 21 20 20 19 19 19 19 19 18 18 18 18 18 19 19 19 20 21 22 23 24 24 25 26 26 26 27 27 28 29 28 28 27 28 28 27 25 25 25 25 24 24 25 25 25 25 25 26 28 29 30 30 30
29 30 29 30 30 31 30 29 29 31 33 33 31 30 30 30 29 29 28 28 27 28 29 29 30 30 29 29 28 27 26 25 24 24 23 22 22 22 22 22 21 21 21 21 21 21 21 21 21 22 23 24 24 26 27 27 28 29 29 30 30 31 31 30 30 30 31 31 30 29 28 27 27 26 27 27 27 26 26 27 28 30 31 31 31
26 27 27 29 30 29 28 24 24 27 30 29 28 29 31 34 33 32 32 31 31 31 31 31 31 32 32 32 31 30 29 28 27 27 26 25 24 25 25 25 25 25 25 25 25 24 24 25 24 24 25 25 25 26 27 28 29 30 31 31 32 33 33 33 33 32 32 32 33 32 32 31 30 29 29 29 29 28 28 29 29 30 31 32 32
25 27 28 29 28 27 26 25 25 27 29 28 29 30 32 35 37 36 35 34 34 34 34 33 34 34 35 35 34 33 33 32 31 30 30 27 26 27 28 29 29 28 28 28 28 27 27 28 28 28 28 28 28 28 28 29 30 30 31 32 33 34 35 35 35 35 34 34 34 34 34 34 34 33 32 32 32 31 31 31 31 31 31 32 32
21 24 27 28 28 26 26 27 28 29 30 32 33 32 31 33 36 37 37 37 37 36 37 37 37 36 36 36 37 37 37 37 36 34 32 30 28 28 29 30 30 31 31 31 31 31 31 30 30 30 30 30 31 31 31 31 32 32 32 33 34 35 36 36 37 37 37 36 36 36 36 35 35 35 34 35 35 35 34 34 34 33 33 33 33
21 22 23 25 26 26 26 27 29 30 31 32 33 32 31 32 34 36 37 39 40 39 40 41 39 38 39 39 38 38 37 37 35 32 30 30 29 29 29 30 31 32 33 34 34 34 34 34 34 33 32 32 33 34 34 34 34 34 35 35 36 36 37 37 37 38 38 38 39 38 38 38 37 36 36 37 37 38 38 38 37 36 35 35 34
26 26 26 27 27 28 29 30 31 32 33 34 34 34 34 34 34 35 37 39 41 42 42 43 42 41 42 42 38 35 33 32 31 29 27 28 28 29 29 30 32 33 34 36 36 37 37 37 37 36 35 34 34 35 36 36 37 37 37 37 38 38 38 38 38 39 39 40 40 40 41 41 39 38 38 38 38 39 40 41 40 39 38 37 36
30 30 31 31 31 32 32 33 34 34 36 37 38 38 38 38 37 36 37 39 41 43 44 44 44 43 44 43 39 35 35 34 31 29 28 28 29 29 30 31 33 35 36 37 38 40 40 40 40 40 38 37 36 37 37 37 38 38 38 39 39 39 40 40 40 40 41 42 42 42 43 43 42 42 41 40 40 40 40 41 42 42 41 40 38
32 33 34 34 34 35 36 36 37 38 39 40 40 40 40 40 39 38 38 38 39 42 42 41 41 42 43 43 41 39 38 37 35 34 33 32 32 31 32 34 35 36 37 38 39 41 42 42 42 42 41 41 40 40 40 40 40 39 39 40 41 41 42 42 43 43 43 44 44 44 45 45 45 45 45 44 43 42 42 42 42 43 43 43 42
29 30 31 32 33 34 36 37 38 40 40 41 41 41 41 41 41 40 40 40 40 41 40 39 39 39 40 40 40 39 38 37 38 38 37 35 34 35 36 36 37 38 39 39 40 42 43 44 44 44 44 43 44 44 43 43 42 42 41 42 42 43 43 44 45 45 45 46 46 46 46 47 48 48 47 47 47 46 45 45 44 44 44 44 45
27 28 28 29 31 33 34 35 37 38 39 39 40 40 40 41 41 41 41 42 43 42 42 41 40 39 38 38 39 40 40 39 40 39 38 37 36 37 38 39 39 40 40 40 42 43 44 43 43 43 44 45 46 46 45 44 43 43 43 44 44 44 44 45 45 45 46 47 48 48 48 48 49 49 49 50 50 50 49 48 47 46 45 45 46
27 28 28 29 30 32 33 34 35 36 37 37 38 38 39 39 39 39 40 41 42 42 43 43 42 41 39 39 40 41 42 42 42 40 39 38 38 39 40 40 40 40 40 41 42 43 42 42 41 42 43 45 47 47 46 45 44 44 44 44 44 45 45 45 46 46 46 47 48 49 49 49 49 49 50 50 51 51 51 50 50 50 49 48 47
27 28 29 30 31 32 33 34 35 35 36 36 37 38 38 39 39 39 40 40 41 41 41 41 42 41 41 41 42 42 42 42 41 40 39 39 39 40 41 40 40 40 40 41 42 42 42 41 42 43 45 47 48 47 45 44 44 44 44 44 45 45 45 45 45 45 46 47 49 50 50 50 50 50 50 50 51 51 51 51 51 51 52 51 50
27 28 29 31 31 32 33 34 35 36 36 37 37 38 39 40 40 41 41 42 42 42 42 42 42 41 40 41 42 41 41 40 40 40 41 41 40 40 40 38 37 38 39 40 41 42 42 42 42 45 47 48 48 47 46 46 46 46 46 46 46 46 46 46 46 46 46 48 49 50 50 51 51 51 50 50 51 51 52 52 51 52 52 53 53
28 29 30 32 33 33 34 36 36 37 37 37 38 38 39 40 41 42 42 42 42 43 43 42 42 41 41 41 41 39 38 38 39 40 41 41 40 40 39 38 38 38 38 39 40 41 42 42 44 47 49 49 48 48 48 48 49 49 49 49 49 49 49 48 48 49 49 49 48 49 49 49 50 50 50 50 51 52 53 53 52 52 53 54 55
29 31 32 33 34 35 36 37 38 38 38 38 38 38 38 39 41 42 43 43 42 42 41 40 40 40 39 39 39 38 37 37 39 40 40 40 40 39 39 40 40 39 40 41 43 43 43 45 48 50 50 48 47 48 49 50 51 52 52 52 52 52 51 51 51 52 52 51 50 49 49 49 49 49 50 50 50 51 53 54 54 54 55 55 56
34 35 35 35 36 37 38 39 39 39 39 39 39 38 38 38 38 40 41 41 41 40 39 37 37 37 36 36 35 35 35 36 38 39 39 40 39 39 40 42 42 43 44 45 46 45 45 47 51 53 51 49 48 48 49 50 52 53 54 55 54 54 53 53 54 54 53 52 51 51 50 50 51 51 51 51 51 51 52 52 54 54 55 56 57
38 38 38 38 39 39 40 41 41 41 41 40 39 37 36 36 36 36 37 38 39 37 35 34 34 34 34 34 34 35 36 37 38 39 39 40 40 40 41 43 44 46 47 47 47 47 47 48 52 53 52 51 50 50 51 52 53 55 56 56 55 55 55 55 55 55 55 54 53 53 52 52 53 53 53 53 54 54 55 54 55 54 55 56 57
41 41 41 41 41 41 42 42 43 43 43 41 39 37 36 35 34 34 34 35 35 34 33 33 32 32 33 34 35 36 37 38 39 39 40 40 40 41 42 43 44 45 46 47 47 48 48 49 51 51 51 51 51 51 52 53 54 55 55 55 55 55 56 56 56 55 55 55 55 55 54 54 54 54 54 55 55 56 56 57 57 56 56 56 56
43 43 43 43 42 42 42 43 43 43 42 40 38 36 35 34 34 34 34 34 33 32 32 32 31 32 34 34 34 34 36 39 41 41 40 40 40 40 41 41 42 44 46 47 48 49 49 49 49 50 50 51 52 52 53 53 54 54 54 55 55 55 56 56 56 56 56 55 56 56 55 55 54 54 54 55 55 56 57 57 58 57 57 57 57
44 44 43 42 41 41 41 42 41 41 40 38 37 36 35 35 35 35 34 33 32 31 31 31 32 32 32 31 32 34 37 40 40 39 39 38 38 39 39 40 42 44 46 46 47 46 47 47 47 48 49 51 52 53 53 54 54 55 55 55 55 56 57 57 57 57 57 56 56 55 54 53 52 52 53 53 54 55 57 57 56 56 56 57 57
43 43 42 41 40 40 40 40 39 38 37 36 36 35 36 36 35 34 33 32 32 31 30 30 30 29 29 31 33 35 37 38 36 35 35 35 36 36 37 38 40 41 41 41 42 43 43 44 46 47 48 50 51 52 53 54 54 54 55 55 56 56 57 57 57 57 57 57 55 53 50 49 49 49 49 48 49 49 50 49 48 48 49 50 52
43 42 40 40 40 40 39 38 37 36 35 35 34 34 34 33 31 30 30 30 31 30 29 28 27 28 30 33 35 34 33 32 32 32 33 33 34 33 33 34 35 36 37 38 39 40 41 42 44 46 48 49 50 51 52 52 53 53 53 53 54 54 55 55 55 55 55 54 51 48 46 44 43 42 41 40 39 39 38 38 39 40 40 42 44
43 41 40 40 40 39 37 35 34 33 33 33 31 30 29 28 27 26 26 28 28 27 25 25 27 29 30 31 31 29 27 26 27 28 29 29 29 30 31 32 33 33 34 35 36 38 39 41 42 44 46 47 48 48 49 50 50 50 50 51 51 52 52 53 52 52 51 48 44 42 40 38 35 33 32 32 32 31 30 32 34 35 35 36 38
41 41 41 40 39 37 34 32 31 31 31 29 26 24 24 23 23 22 22 23 23 22 23 25 28 28 27 26 24 22 22 23 24 24 24 25 26 27 28 29 30 31 32 33 34 35 37 39 40 41 42 44 44 45 46 47 47 48 48 48 48 48 49 49 49 47 45 41 39 37 34 31 29 29 29 29 29 28 28 31 32 32 32 34 36
40 40 39 37 36 34 32 31 30 29 27 24 22 21 21 21 21 22 21 21 22 23 24 25 24 23 21 19 18 18 19 20 20 20 21 22 24 25 26 27 27 28 29 30 31 33 34 36 37 38 40 41 42 43 44 44 45 45 45 45 44 44 44 44 43 42 39 37 35 33 30 29 29 30 30 30 29 29 30 32 32 32 32 33 34
36 34 31 29 28 26 25 25 25 24 24 24 23 22 22 22 22 22 22 23 24 23 20 17 16 15 15 15 15 16 16 16 17 19 20 21 22 23 23 24 25 25 26 27 29 31 33 34 35 37 38 39 40 41 41 41 41 41 41 41 40 40 39 39 39 38 38 36 34 33 31 31 31 31 31 32 31 30 31 32 32 33 33 33 32
25 21 18 17 18 20 21 22 23 24 25 25 24 24 25 25 23 20 19 19 18 16 14 12 12 13 13 13 13 13 14 15 16 17 18 19 19 20 21 22 23 24 25 27 29 31 32 33 34 35 36 37 37 37 37 37 36 36 36 35 35 35 35 35 35 36 36 36 35 34 33 32 32 32 33 32 31 30 31 30 30 30 31 32 32
14 12 13 15 17 20 22 24 26 27 26 26 24 24 25 25 22 20 17 16 14 13 13 12 12 11 11 11 12 13 14 14 15 15 16 16 17 19 20 21 22 24 27 29 30 31 31 33 34 34 35 35 35 34 34 34 34 33 33 32 31 31 31 31 32 33 34 34 34 34 33 33 32 31 29 28 28 27 26 25 25 24 24 27 29
12 12 12 15 19 22 24 25 26 26 25 24 23 21 20 19 18 17 16 15 13 12 12 11 10 10 10 11 12 12 13 12 12 13 14 15 17 18 20 21 23 25 27 29 31 32 33 34 34 34 34 33 32 32 32 31 31 30 28 28 27 27 27 28 29 30 32 32 33 33 32 31 28 24 23 24 24 24 23 23 24 24 23 23 24
19 20 20 21 21 22 24 24 23 22 21 20 19 18 16 14 14 13 13 12 11 10 10 10 10 10 10 10 10 10 9 9 10 12 13 15 16 19 21 23 24 26 28 31 32 33 34 34 33 33 32 31 30 30 29 28 27 25 23 23 23 23 24 25 26 28 30 30 30 30 28 25 22 20 21 23 24 24 24 24 26 26 26 24 23
26 25 25 25 23 22 22 21 20 19 18 17 16 15 14 13 13 12 11 11 10 10 10 10 9 9 8 7 7 7 7 8 10 11 13 15 17 20 21 23 25 27 30 32 33 33 34 33 32 31 31 30 29 29 26 24 23 21 20 20 20 20 22 23 24 25 26 26 27 26 24 22 22 23 24 25 26 27 28 28 28 28 28 28 27
28 26 25 25 24 22 21 20 19 18 17 16 15 14 13 13 13 12 12 11 10 10 9 7 6 5 5 4 5 5 6 8 10 12 14 16 18 20 22 24 26 28 31 33 34 35 34 33 32 30 30 29 28 26 23 21 20 19 18 18 19 19 20 21 21 22 23 24 24 23 22 22 25 27 28 29 30 31 31 30 29 27 27 28 28
28 27 26 25 25 23 21 19 19 18 17 16 16 15 14 14 14 13 12 10 8 6 5 3 3 3 2 3 4 6 8 10 11 13 14 17 19 22 24 26 28 30 32 34 35 36 35 34 32 30 30 29 27 24 21 18 17 17 16 16 16 17 18 18 18 19 19 20 20 20 22 24 26 27 28 27 28 28 29 29 28 27 26 26 26
26 27 26 25 24 22 20 18 18 18 17 18 17 17 16 14 13 11 9 6 4 2 1 0 1 2 3 5 7 8 10 11 12 14 16 18 21 23 25 27 29 30 33 35 36 36 36 34 32 30 30 29 26 23 19 17 16 15 15 14 13 14 15 14 13 13 13 14 15 18 21 23 24 24 25 25 25 26 26 26 26 26 25 24 24
23 24 24 23 23 21 18 17 17 17 18 18 17 16 14 12 11 8 6 3 2 1 2 2 3 5 6 7 8 10 12 13 14 15 17 18 21 23 25 26 29 31 32 34 35 36 36 34 33 31 31 29 26 22 19 17 16 15 14 13 11 11 10 9 8 8 8 9 12 14 17 19 20 21 21 22 22 23 23 22 21 22 22 22 23
20 20 20 20 20 20 17 16 16 17 16 15 14 13 11 10 8 6 4 2 2 2 3 4 4 5 6 8 10 12 13 13 14 14 15 17 20 23 25 27 28 30 33 35 36 36 36 34 32 31 31 29 27 23 20 18 17 15 14 13 11 8 7 6 5 5 6 8 10 12 14 14 15 16 17 16 16 16 17 17 17 18 18 19 20
16 16 16 16 17 17 16 15 15 15 14 13 12 10 9 7 5 3 3 3 3 3 3 4 5 6 7 9 11 12 12 12 13 14 15 18 20 23 25 27 29 31 33 35 36 36 35 34 32 31 31 29 27 24 21 19 18 16 14 12 10 7 5 4 3 4 6 8 9 9 10 11 12 12 11 9 7 7 7 8 9 10 12 14 16
13 13 13 13 14 15 14 13 14 13 12 11 9 8 6 4 3 2 2 2 2 3 4 5 6 7 8 9 10 10 11 12 13 14 16 18 21 23 25 28 29 31 33 35 35 36 35 34 32 31 30 29 27 25 23 21 18 16 14 12 9 6 4 2 2 4 6 7 7 7 8 10 11 8 3 1 2 4 4 5 6 7 8 10 12
12 12 11 11 13 14 13 12 12 11 10 8 7 5 3 2 2 1 1 2 2 3 4 6 6 7 8 8 9 10 12 13 14 15 16 18 20 23 26 28 29 31 33 34 35 35 35 34 31 30 29 29 27 26 25 23 20 18 15 12 10 6 2 1 2 4 4 3 5 7 8 9 9 7 5 3 3 4 4 4 4 4 5 7 10
11 12 12 12 12 12 12 11 10 9 8 6 5 3 2 2 1 1 2 2 3 4 5 6 6 7 7 8 9 11 12 14 15 16 17 18 20 23 26 28 29 30 32 33 34 34 34 33 31 29 28 27 26 25 24 23 21 19 16 13 10 5 2 2 3 3 2 2 6 9 9 7 6 5 5 3 2 2 1 1 2 3 6 9 13
10 11 12 12 11 11 11 10 9 8 7 5 4 3 3 3 3 3 3 3 4 4 5 6 6 7 8 9 10 12 13 15 16 17 18 19 20 23 26 27 28 30 31 32 33 33 34 33 31 28 27 26 25 24 23 22 20 19 17 14 10 5 2 3 3 3 4 3 6 9 10 8 5 2 2 2 2 4 5 6 8 8 9 13 18
8 9 11 12 11 11 10 9 8 8 6 5 4 4 5 5 5 4 4 4 4 4 5 6 7 9 10 10 11 13 14 16 17 18 18 19 20 22 25 26 27 29 30 31 31 32 33 32 31 29 27 26 25 24 23 21 19 18 17 14 10 5 3 3 3 5 6 4 5 8 10 11 8 3 1 1 2 4 6 8 10 13 15 17 20
8 9 11 11 11 11 11 9 8 7 6 5 5 6 6 6 6 5 5 5 5 5 6 6 8 9 10 12 12 13 14 16 17 18 19 19 20 22 24 25 26 28 29 29 30 31 31 31 30 29 28 27 26 25 23 21 19 18 16 14 10 5 4 3 3 5 7 6 7 9 10 12 12 7 2 3 2 4 5 6 7 10 15 17 17
9 10 11 11 11 11 11 10 9 8 7 7 8 8 8 8 7 6 6 5 5 5 6 7 8 9 11 12 13 14 15 16 17 18 19 19 20 21 23 24 25 26 28 28 29 30 30 30 30 30 29 29 28 26 24 22 20 18 16 13 10 6 5 4 4 5 8 8 9 11 12 12 13 9 4 5 5 5 6 6 6 7 10 14 15
10 12 11 11 12 12 11 10 9 9 10 10 10 9 9 8 6 5 5 4 4 5 6 7 8 9 10 12 13 14 15 16 17 19 19 19 19 20 22 23 23 25 26 28 28 29 29 29 30 30 30 30 30 28 26 24 22 19 17 14 11 7 5 5 5 6 8 9 10 12 13 12 10 7 3 5 6 5 5 6 7 8 9 11 14
10 12 11 11 11 12 12 12 12 11 11 11 10 9 8 6 5 4 3 3 4 4 5 6 7 8 9 11 12 14 15 16 17 18 19 19 19 20 21 22 22 24 25 26 27 28 29 29 29 29 30 31 31 30 28 26 24 22 19 16 13 9 6 4 5 5 6 8 9 10 8 5 4 3 2 4 4 4 5 6 7 8 9 10 12
9 10 10 9 10 11 12 13 13 12 12 11 10 8 7 5 3 2 2 3 4 5 6 6 7 8 8 10 11 12 14 15 16 17 19 19 19 19 20 21 21 22 24 25 26 27 28 28 28 29 30 32 33 32 31 28 27 24 21 17 14 11 8 6 5 4 4 5 5 3 1 2 4 5 7 8 8 8 10 11 11 12 12 12 13
Wind_Direction
227 226 226 226 224 225 227 229 232 235 239 245 251 255 260 264 266 267 267 269 271 274 275 276 280 286 291 294 298 303 309 315 321 326 330 332 332 330 327 323 319 314 308 304 301 299 296 293 290 287 285 284 283 282 281 280 280 281 281 281 280 278 277 277 276 276 275 275 275 274 273 273 273 272 271 270 270 269 268 268 269 270 270 269 268
233 229 230 230 228 226 225 226 228 230 232 236 241 245 249 254 259 261 263 264 266 269 271 272 274 277 281 284 287 291 295 300 305 310 315 319 321 321 321 320 319 318 315 310 305 300 297 295 292 290 288 287 286 285 284 284 284 283 283 283 283 281 279 278 278 276 276 277 277 277 276 274 274 274 274 274 274 273 271 270 270 270 270 270 271
240 236 234 235 238 237 231 228 228 229 230 232 235 238 240 244 248 253 258 259 261 264 267 269 270 272 274 276 279 282 286 289 292 296 300 305 308 310 312 312 313 314 314 312 310 306 301 297 294 292 291 290 289 288 288 288 288 289 289 289 288 287 286 285 283 282 280 280 280 280 280 279 278 277 276 276 276 275 275 274 273 272 272 272 271
238 235 234 236 245 250 245 239 235 234 234 234 234 236 237 240 244 246 250 255 257 260 262 265 268 270 272 274 276 278 279 281 282 284 287 292 296 300 302 303 305 307 307 308 307 305 302 299 296 293 292 290 289 289 288 288 288 289 289 289 289 289 288 288 287 287 286 285 283 281 280 280 280 280 280 279 277 276 276 276 276 275 275 274 273
232 232 233 238 248 254 254 249 245 243 244 242 244 245 243 242 244 244 246 249 252 255 258 262 265 267 269 271 272 272 273 274 274 276 278 281 286 290 293 296 298 300 301 302 303 302 301 300 298 295 293 291 289 288 288 288 288 288 288 288 288 288 287 287 286 286 286 287 287 285 283 282 281 280 280 280 279 277 276 275 275 276 276 277 276
232 232 234 240 248 252 254 256 255 255 255 253 255 257 254 250 249 248 246 247 250 255 257 259 262 265 268 269 270 270 270 270 271 273 275 276 279 283 286 289 292 294 297 299 300 299 299 299 299 297 295 294 292 291 289 288 287 287 287 287 286 286 286 286 285 284 284 284 285 285 284 284 283 282 282 281 279 278 277 275 273 273 274 275 276
238 238 240 247 254 257 260 264 266 267 268 266 265 264 258 254 255 254 251 252 256 259 258 257 259 263 266 269 271 271 270 269 268 268 270 273 277 282 285 287 289 292 295 297 297 297 296 297 297 296 295 295 295 294 292 291 289 287 286 285 284 284 284 284 284 283 282 282 281 281 281 282 282 283 282 282 280 279 277 276 274 273 273 273 274
248 245 246 252 259 263 266 267 267 268 270 268 267 266 258 254 256 257 257 257 259 259 258 257 260 263 265 267 269 271 272 272 271 270 272 275 279 284 286 287 290 292 294 295 295 295 294 295 296 296 295 294 294 294 295 294 293 291 289 286 284 283 283 282 282 282 281 281 280 279 279 278 279 280 281 281 281 279 277 276 275 274 274 274 273
263 259 257 258 260 262 264 265 266 267 267 266 266 264 260 256 257 258 258 258 259 260 260 260 262 264 264 265 268 271 275 279 280 280 280 279 279 282 285 287 288 290 291 292 293 292 291 291 293 296 296 294 292 292 293 294 293 292 291 290 288 286 285 283 282 282 281 280 280 279 279 278 277 278 279 279 280 279 279 277 276 275 275 274 274
271 270 268 266 265 263 262 262 262 263 265 265 264 263 262 260 259 258 258 258 259 260 259 259 261 262 264 267 270 272 274 278 281 281 278 274 274 279 283 285 285 285 287 288 289 289 289 287 288 291 295 296 293 290 290 291 291 291 290 290 290 289 288 287 286 284 283 281 280 280 280 279 279 278 278 278 278 278 279 279 279 278 277 276 275
274 274 273 271 269 268 267 265 265 264 264 264 262 261 261 260 259 258 257 257 258 258 258 258 259 262 266 270 273 273 273 276 278 277 274 272 274 278 280 281 281 281 282 284 285 286 286 284 283 285 290 295 294 291 288 287 286 287 287 288 288 289 289 289 289 288 286 284 282 281 281 281 281 280 280 279 278 278 278 279 280 280 280 279 277
272 272 271 270 269 269 270 270 270 269 267 264 262 261 261 261 260 259 259 258 258 259 260 261 261 263 265 269 271 272 273 274 275 276 276 275 277 278 278 278 278 278 278 280 280 281 283 283 281 280 284 291 295 293 290 286 283 282 282 284 286 287 288 289 290 289 288 287 285 284 283 283 283 282 282 281 281 280 279 279 279 279 280 280 279
269 268 268 267 268 269 270 270 270 269 267 266 265 264 263 263 262 262 263 263 262 263 264 265 265 265 266 267 269 271 272 272 272 274 276 277 278 278 277 276 275 274 275 276 277 279 280 282 281 280 282 287 292 292 291 288 285 281 279 279 281 283 284 286 288 288 288 287 286 285 285 285 285 285 285 284 284 282 281 280 279 278 277 278 278
270 269 269 269 270 270 269 268 268 267 267 266 266 267 266 265 264 264 264 264 265 266 267 267 268 268 268 268 268 269 271 272 272 274 276 277 278 276 275 273 272 272 274 276 277 279 281 282 282 282 283 286 289 290 290 289 287 285 282 281 281 281 281 282 284 285 286 285 285 285 285 285 285 285 285 285 285 284 284 283 282 280 278 277 277
268 269 270 270 270 270 270 269 269 268 267 267 267 267 267 267 267 266 265 264 264 265 266 267 267 268 269 269 269 269 270 271 272 273 274 274 274 273 272 271 271 273 275 277 279 281 282 283 284 285 285 286 288 288 288 289 288 288 286 285 284 284 284 284 285 285 285 284 283 283 282 282 282 282 283 283 283 283 283 283 283 282 281 280 279
267 268 268 268 267 268 269 269 270 269 269 268 268 268 268 268 268 267 267 266 266 265 265 265 265 266 266 266 267 268 269 269 270 271 270 270 271 271 270 270 271 273 276 278 280 282 283 285 286 286 287 288 288 288 289 289 289 289 289 288 287 286 286 287 287 287 286 285 283 282 282 281 280 280 279 279 280 280 280 280 280 281 281 281 281
270 270 269 268 267 267 268 268 269 269 269 269 269 268 267 267 267 267 267 267 267 267 267 266 266 267 267 266 267 267 268 268 269 269 270 270 271 271 272 272 273 275 276 278 281 283 284 284 285 287 289 290 290 291 291 292 292 291 290 290 289 288 288 289 288 287 285 283 282 281 281 281 280 280 279 279 278 278 278 278 278 278 279 280 279
275 274 273 272 271 269 268 268 268 269 269 270 270 269 268 267 266 266 266 266 267 266 267 267 268 268 268 268 269 268 268 268 268 268 270 271 272 274 274 276 278 277 277 279 283 284 284 284 286 289 290 290 292 294 294 294 293 292 292 292 291 291 291 291 289 287 285 283 281 281 280 279 279 279 279 278 278 277 277 278 277 276 276 277 277
281 279 277 276 274 272 270 269 268 268 269 269 270 270 270 269 267 266 265 265 266 266 266 266 267 267 268 268 268 267 266 265 265 266 268 271 273 275 275 276 279 280 280 282 285 286 286 285 287 290 290 289 292 293 293 292 293 293 293 293 292 292 292 291 289 287 286 285 284 283 282 281 279 278 277 276 275 275 276 276 276 274 274 274 274
288 286 283 281 277 274 272 270 269 268 268 269 270 272 272 272 270 268 266 265 265 266 266 266 265 265 266 265 263 261 258 259 262 265 268 270 271 272 274 275 277 279 281 282 284 285 285 285 288 290 290 290 292 291 290 290 291 292 292 292 292 292 291 290 289 288 288 287 286 285 284 283 282 281 280 278 277 275 273 272 271 271 272 272 271
289 288 285 282 279 276 274 272 270 269 268 269 270 272 273 272 270 268 266 264 263 264 264 263 262 260 260 259 257 254 252 256 260 263 265 266 266 269 272 275 277 280 281 281 283 284 284 286 288 290 290 291 291 290 289 290 290 290 290 290 291 290 290 289 289 288 288 288 287 287 286 284 283 282 282 281 279 277 275 273 271 269 268 268 268
287 286 283 280 278 277 275 273 271 269 268 268 269 270 271 269 266 264 262 260 259 260 260 258 255 253 254 254 254 253 252 254 257 259 261 263 265 269 273 276 278 280 281 282 284 285 286 287 287 287 288 289 289 289 288 288 288 288 288 288 288 288 288 288 287 287 287 287 287 287 286 285 284 283 281 280 278 277 276 275 274 272 269 267 265
283 281 279 277 276 275 274 273 271 268 266 265 266 267 267 264 262 260 259 256 255 254 254 252 249 247 249 253 256 255 254 253 254 255 258 262 266 270 273 276 278 281 282 283 285 285 286 285 285 286 287 288 288 288 288 288 288 287 287 287 287 287 286 286 286 286 286 286 285 285 285 284 283 282 281 280 279 278 277 276 274 273 272 269 267
278 276 275 274 273 273 272 270 268 266 263 262 263 264 263 261 260 260 257 253 251 249 248 247 245 243 246 251 254 252 250 248 249 252 256 261 265 270 274 276 278 280 282 283 284 285 285 285 285 287 288 289 289 290 290 289 289 289 288 288 287 287 286 286 286 285 285 284 284 284 283 282 281 281 280 280 280 279 278 276 275 274 272 270 267
276 275 274 272 271 270 269 267 265 263 261 261 262 262 260 259 260 259 256 251 249 246 244 242 242 241 242 243 243 243 244 245 249 255 260 265 269 273 276 277 278 280 281 283 285 286 286 287 288 289 289 289 289 289 289 288 288 287 287 286 285 284 284 283 283 283 282 282 282 281 280 280 280 281 281 279 278 277 276 276 275 273 271 268 266
276 275 273 272 271 270 268 265 262 261 261 261 260 259 258 257 255 253 251 248 246 244 240 238 237 238 238 237 236 238 243 247 253 260 265 268 271 274 277 279 280 282 284 286 287 288 288 289 289 288 288 288 287 287 287 286 286 285 283 282 281 280 280 279 279 279 279 279 279 278 279 281 281 280 278 276 275 274 276 276 276 274 271 269 267
278 277 275 273 272 271 267 263 260 259 258 257 257 256 254 251 247 244 242 241 241 239 236 233 232 231 232 233 235 241 248 254 259 263 266 269 272 276 279 282 284 286 287 288 288 289 289 289 288 288 288 288 287 287 286 285 284 283 281 280 279 279 278 278 277 277 278 278 277 277 280 281 279 277 275 274 272 273 275 277 277 277 276 273 270
280 279 277 275 272 268 263 259 255 252 251 251 250 247 242 237 231 227 226 230 233 231 228 226 225 226 229 233 239 245 252 257 262 266 269 273 277 280 282 284 285 287 288 289 289 290 291 291 291 291 290 290 289 288 287 286 285 284 283 282 280 279 278 278 278 278 277 276 276 278 280 278 277 277 276 274 274 274 274 273 274 275 276 274 271
279 278 276 272 267 261 255 250 246 243 241 238 230 223 221 219 214 210 210 214 216 215 214 215 218 221 225 231 239 246 251 257 262 268 272 276 279 280 282 284 286 288 290 292 293 294 295 296 297 297 296 294 293 291 290 289 288 287 286 285 283 282 280 279 279 278 277 274 275 278 279 277 278 279 277 276 276 275 273 273 272 270 270 271 272
279 277 271 264 255 246 239 234 231 228 224 217 208 201 198 197 196 197 199 200 201 202 203 206 210 216 224 232 241 248 255 261 267 271 274 276 278 280 284 288 291 294 297 300 302 304 305 306 305 304 302 299 297 295 293 291 290 288 287 285 284 283 280 278 277 276 274 273 273 275 277 277 277 277 276 277 277 274 271 271 269 266 264 267 271
273 265 252 235 221 213 208 206 205 204 201 196 192 190 189 183 179 180 186 190 191 192 195 202 211 220 229 239 247 254 259 263 266 269 272 276 281 288 294 298 302 306 310 314 315 315 315 314 313 310 307 304 301 299 297 295 293 290 288 286 284 282 279 276 274 273 273 273 272 273 275 277 277 276 276 276 275 272 269 267 267 267 265 264 267
245 226 213 201 192 189 189 188 187 184 180 176 178 185 187 183 179 179 181 183 185 189 196 206 216 224 232 239 246 250 253 256 262 269 277 285 294 301 306 312 318 321 322 322 323 323 323 322 320 317 313 310 308 306 304 302 298 294 290 286 283 280 277 274 273 273 273 272 271 273 275 277 276 275 274 273 271 268 265 263 265 268 268 266 266
189 181 179 175 170 167 164 162 161 162 162 164 168 174 177 178 180 180 179 179 185 191 198 207 214 219 226 231 237 242 249 259 272 283 293 300 307 313 320 326 327 326 326 329 331 332 332 330 326 322 319 315 313 311 308 305 301 296 291 286 283 280 277 275 273 271 271 270 270 272 274 273 272 271 270 267 264 261 261 263 265 267 269 270 271
139 138 135 135 137 138 137 136 138 143 148 153 155 156 158 162 168 172 175 177 182 186 191 198 205 212 220 228 237 248 264 281 295 302 306 312 319 327 332 332 331 331 335 338 339 338 336 333 330 326 323 320 318 315 311 306 301 296 291 287 283 281 279 276 273 270 269 268 267 268 268 265 261 262 265 264 261 261 263 265 267 266 265 266 270
121 122 123 123 122 123 125 128 131 136 141 144 147 151 154 157 161 166 169 171 173 178 186 195 203 213 224 236 252 271 289 305 314 318 323 328 333 336 336 336 337 340 342 342 341 340 338 336 334 330 327 325 323 319 313 308 304 300 295 288 284 281 279 277 274 271 269 265 263 262 260 256 254 257 261 262 262 264 266 267 268 266 262 259 260
121 123 124 124 125 126 129 132 134 137 140 142 145 149 152 155 158 159 160 163 170 179 186 194 206 222 237 258 280 302 322 332 336 338 340 340 340 339 341 343 344 344 345 344 343 342 340 338 337 336 333 330 327 322 317 314 311 306 298 291 285 281 278 276 273 269 265 262 260 257 254 254 257 261 262 262 263 264 266 267 267 266 264 259 254
128 129 129 129 127 127 129 131 131 133 136 137 139 142 145 148 151 152 155 161 168 174 183 197 224 245 269 310 334 345 349 348 346 346 346 346 345 346 347 347 347 347 348 347 345 342 341 341 341 341 338 334 331 327 323 320 316 310 302 295 289 284 280 276 273 268 264 261 259 255 254 257 261 265 266 266 266 267 267 267 265 262 260 257 251
127 127 126 125 124 124 126 126 126 127 130 133 136 138 139 141 144 146 149 154 155 154 162 233 313 328 350 1 1 358 354 350 351 353 352 351 350 349 348 347 348 349 349 348 345 343 342 343 344 344 342 338 335 332 329 327 322 315 308 302 296 290 285 280 275 271 268 263 259 257 260 265 268 269 271 272 272 270 269 268 266 260 253 250 248
123 123 122 123 122 122 121 121 121 124 127 129 131 133 132 133 135 137 137 132 104 53 28 15 3 358 359 360 360 1 360 357 356 354 351 348 348 347 348 349 350 350 350 348 347 345 344 345 346 347 345 342 340 338 337 335 331 325 319 314 306 297 291 287 285 283 281 279 277 277 280 282 280 277 276 276 275 273 267 263 261 257 251 249 250
119 119 122 124 124 123 123 122 121 122 123 125 127 127 127 127 128 128 121 92 58 33 16 10 8 5 2 1 4 6 3 357 351 347 345 347 349 349 349 351 352 351 351 350 349 347 347 347 348 348 347 345 344 343 343 342 339 335 328 322 315 306 302 302 304 304 305 305 303 300 299 298 295 290 285 281 277 273 266 260 255 253 250 248 244
117 116 120 124 125 125 126 125 124 124 125 126 125 124 123 123 119 109 85 62 43 22 10 11 12 10 9 10 11 8 1 354 350 348 350 352 352 351 352 353 353 353 353 352 350 350 350 350 350 351 350 348 346 346 347 348 346 342 335 328 321 317 317 320 325 329 328 324 316 311 315 319 315 305 295 285 276 271 268 263 255 249 244 239 232
120 117 120 125 129 132 133 132 130 129 129 128 125 122 117 108 89 68 54 43 28 19 19 18 17 17 17 15 11 5 359 357 357 356 356 356 355 354 355 355 355 355 354 353 352 353 353 352 353 352 351 350 349 349 351 351 350 348 343 336 329 328 329 333 342 339 334 329 325 328 334 335 331 326 325 322 302 296 290 283 273 259 244 233 224
121 124 130 136 141 141 139 137 136 134 134 134 131 123 108 80 49 39 45 37 34 32 28 23 23 25 23 17 11 6 3 3 3 2 2 0 358 357 357 356 356 357 356 354 354 355 355 355 355 354 353 353 352 351 351 351 351 352 349 342 336 335 322 242 315 330 326 325 333 334 331 333 344 4 23 12 331 319 304 290 279 254 220 202 194
128 135 142 149 152 148 144 142 143 144 147 147 139 120 96 72 64 81 81 62 51 43 35 31 32 31 25 19 15 9 6 6 7 8 7 4 2 0 359 357 357 358 358 356 356 357 357 358 358 357 357 357 355 353 352 351 350 352 351 346 343 341 289 251 302 314 273 307 342 343 334 325 334 1 11 3 17 60 56 195 173 170 174 169 163
137 142 148 154 158 156 151 151 154 157 158 153 140 118 108 102 99 95 86 74 64 53 44 39 35 30 25 21 17 11 8 7 8 9 9 7 5 3 1 359 359 360 359 358 358 358 360 2 2 1 2 3 1 357 355 352 351 353 352 349 350 346 269 259 293 267 234 269 340 348 348 343 330 333 22 26 78 112 116 122 124 126 141 152 152
142 144 151 160 166 166 163 163 165 164 162 153 138 127 119 115 112 108 100 91 81 67 55 46 36 29 25 21 16 12 9 7 6 7 9 8 6 5 3 0 0 1 1 360 360 1 3 5 5 5 7 9 7 2 358 356 357 358 356 353 355 346 271 262 278 256 243 268 326 333 340 347 344 332 134 109 146 149 142 138 132 127 131 140 146
150 153 160 169 176 177 175 174 172 169 165 157 148 142 136 131 128 122 111 102 90 75 62 49 36 28 23 19 15 12 9 6 5 5 7 7 6 6 4 2 3 3 2 2 3 3 4 6 8 9 11 14 12 7 2 1 4 6 2 359 359 343 290 278 282 261 256 278 311 312 318 333 335 324 252 192 200 181 166 165 159 147 144 148 152
163 166 173 180 185 185 183 181 178 176 171 163 155 150 145 140 134 125 112 99 88 75 63 48 36 27 20 15 13 11 9 7 5 4 5 7 7 6 4 4 4 5 4 4 5 5 4 7 10 13 15 17 17 13 8 7 10 12 10 8 8 353 315 301 291 266 256 265 292 305 310 321 327 318 261 214 224 222 201 195 194 179 166 162 162
177 178 181 187 191 190 188 187 184 178 170 163 159 156 151 145 138 126 112 95 78 65 52 40 31 24 16 12 10 8 6 6 4 3 5 6 6 5 5 5 6 6 6 6 7 6 6 8 12 16 19 21 22 19 14 12 15 17 16 15 17 12 347 320 299 276 260 263 286 304 310 316 323 322 262 218 228 236 221 205 202 200 194 188 183
191 188 188 192 194 191 186 183 179 174 170 166 165 162 157 150 140 125 102 74 55 43 33 26 20 15 10 8 7 5 4 4 2 2 3 4 4 4 6 7 8 8 8 8 8 8 8 10 15 20 23 25 27 25 20 18 19 21 20 18 18 18 10 345 316 289 270 275 293 306 313 323 349 23 111 163 168 138 114 122 143 160 170 176 180
199 193 192 195 196 193 187 181 176 174 174 173 171 169 164 154 142 115 65 38 26 19 12 7 4 2 2 3 3 3 2 1 360 360 1 2 2 3 5 7 10 11 10 10 10 10 10 12 18 24 27 29 30 29 27 24 24 24 23 21 20 22 24 14 350 313 278 282 302 325 41 89 93 104 115 121 121 117 113 114 121 129 132 133 138
Height
3104 3105 3106 3107 3108 3109 3111 3111 3112 3113 3113 3114 3114 3114 3115 3115 3114 3114 3114 3114 3114 3114 3114 3115 3115 3115 3115 3116 3116 3117 3117 3117 3117 3117 3117 3117 3116 3116 3115 3115 3114 3114 3114 3114 3113 3113 3113 3113 3113 3113 3113 3113 3113 3113 3113 3113 3113 3113 3113 3114 3114 3114 3115 3115 3114 3114 3114 3114 3113 3113 3113 3113 3113 3113 3112 3112 3112 3112 3112 3111 3110 3110 3110 3110 3110
3101 3102 3103 3104 3105 3106 3107 3108 3108 3109 3110 3110 3111 3112 3112 3112 3112 3112 3112 3112 3112 3112 3112 3112 3113 3113 3113 3114 3114 3115 3115 3115 3115 3116 3116 3116 3115 3115 3114 3114 3113 3113 3113 3112 3112 3112 3111 3111 3111 3110 3110 3110 3110 3110 3110 3110 3110 3110 3110 3110 3110 3111 3111 3111 3111 3111 3110 3111 3110 3110 3110 3110 3110 3109 3109 3109 3109 3108 3108 3107 3107 3106 3106 3107 3107
3099 3100 3101 3102 3102 3103 3104 3104 3105 3105 3106 3106 3107 3108 3108 3109 3109 3110 3110 3109 3109 3109 3109 3109 3110 3111 3111 3112 3112 3112 3113 3113 3113 3113 3113 3114 3113 3113 3113 3112 3112 3112 3112 3111 3111 3110 3110 3109 3109 3108 3108 3108 3108 3107 3107 3107 3107 3107 3107 3107 3106 3107 3107 3107 3107 3107 3106 3107 3107 3107 3106 3106 3107 3106 3105 3105 3105 3105 3105 3104 3103 3103 3102 3102 3103
3096 3097 3098 3099 3100 3100 3101 3101 3102 3102 3102 3103 3103 3104 3105 3105 3106 3106 3107 3107 3107 3107 3107 3107 3107 3108 3108 3109 3110 3110 3110 3111 3111 3111 3111 3111 3111 3111 3111 3111 3110 3110 3110 3110 3109 3109 3108 3108 3107 3107 3106 3106 3105 3105 3104 3104 3104 3104 3104 3103 3103 3103 3103 3103 3103 3102 3102 3102 3103 3103 3103 3103 3103 3102 3102 3101 3101 3101 3101 3101 3099 3099 3098 3098 3099
3093 3094 3095 3097 3097 3097 3098 3098 3099 3100 3100 3100 3101 3102 3102 3102 3102 3103 3103 3104 3104 3104 3104 3104 3104 3104 3105 3106 3106 3107 3107 3108 3108 3108 3108 3108 3108 3108 3108 3108 3108 3108 3107 3107 3107 3107 3106 3106 3106 3105 3104 3104 3103 3103 3102 3102 3101 3101 3100 3100 3099 3099 3099 3099 3099 3099 3098 3097 3098 3098 3098 3099 3099 3099 3098 3098 3097 3097 3097 3096 3096 3095 3094 3094 3094
3091 3091 3092 3093 3093 3094 3094 3095 3095 3096 3097 3098 3099 3100 3099 3099 3099 3100 3100 3100 3100 3100 3101 3101 3101 3101 3101 3102 3102 3103 3104 3104 3105 3105 3105 3106 3106 3105 3105 3105 3105 3105 3104 3104 3104 3104 3104 3103 3103 3102 3102 3101 3101 3100 3100 3099 3098 3098 3097 3096 3096 3095 3095 3095 3095 3095 3095 3094 3094 3093 3093 3094 3094 3094 3095 3094 3093 3093 3092 3092 3092 3091 3090 3090 3090
3088 3088 3089 3089 3090 3090 3092 3092 3093 3093 3094 3094 3095 3096 3096 3096 3096 3096 3097 3097 3096 3097 3098 3098 3098 3099 3098 3098 3099 3099 3100 3100 3101 3101 3102 3103 3103 3103 3102 3102 3101 3101 3101 3101 3101 3100 3100 3100 3099 3099 3098 3098 3098 3097 3097 3096 3095 3095 3094 3093 3092 3091 3091 3091 3091 3091 3091 3091 3090 3090 3089 3089 3089 3089 3090 3089 3088 3089 3088 3087 3087 3087 3087 3086 3086
3085 3085 3086 3086 3086 3087 3087 3088 3089 3089 3090 3090 3091 3092 3092 3092 3092 3093 3093 3093 3093 3094 3095 3095 3095 3096 3095 3095 3095 3095 3096 3096 3097 3098 3099 3100 3100 3099 3098 3098 3098 3097 3097 3097 3097 3096 3096 3096 3095 3095 3095 3094 3094 3093 3093 3092 3092 3091 3090 3089 3088 3087 3087 3086 3086 3086 3086 3086 3086 3086 3086 3085 3085 3085 3085 3084 3083 3083 3083 3083 3082 3082 3082 3082 3082
3081 3082 3082 3083 3083 3083 3084 3085 3085 3086 3086 3087 3087 3088 3088 3089 3089 3089 3089 3090 3090 3090 3091 3091 3092 3092 3091 3090 3091 3092 3092 3092 3093 3095 3096 3096 3095 3095 3094 3094 3094 3093 3093 3092 3092 3092 3092 3091 3091 3091 3091 3090 3089 3089 3088 3087 3087 3086 3086 3085 3083 3083 3082 3082 3081 3081 3081 3080 3080 3080 3080 3080 3081 3081 3081 3080 3079 3077 3077 3077 3077 3077 3078 3077 3078
3078 3078 3078 3079 3079 3080 3081 3081 3082 3082 3083 3083 3083 3084 3084 3084 3084 3085 3085 3085 3085 3085 3086 3087 3088 3088 3087 3086 3087 3088 3088 3088 3089 3090 3090 3090 3090 3090 3090 3090 3089 3089 3089 3088 3088 3087 3087 3087 3086 3086 3086 3086 3085 3084 3084 3083 3082 3081 3080 3080 3078 3077 3077 3076 3076 3076 3075 3075 3075 3075 3074 3074 3075 3076 3076 3075 3074 3073 3072 3071 3070 3071 3072 3072 3073
3074 3074 3074 3075 3075 3075 3076 3077 3077 3078 3078 3079 3079 3079 3079 3079 3080 3080 3080 3080 3080 3080 3081 3082 3083 3083 3082 3082 3083 3083 3083 3084 3085 3085 3085 3085 3085 3085 3086 3085 3085 3085 3084 3084 3083 3082 3082 3082 3081 3081 3081 3081 3080 3079 3079 3078 3077 3076 3075 3074 3073 3072 3071 3071 3070 3070 3069 3069 3069 3069 3068 3068 3068 3069 3069 3069 3069 3068 3067 3066 3065 3064 3065 3065 3066
3070 3070 3070 3070 3071 3071 3071 3071 3072 3072 3073 3073 3074 3074 3074 3075 3075 3076 3076 3076 3076 3075 3076 3077 3078 3078 3078 3078 3078 3079 3079 3080 3080 3079 3079 3079 3080 3080 3081 3080 3080 3080 3079 3079 3078 3077 3076 3076 3076 3075 3075 3075 3075 3074 3073 3072 3071 3070 3070 3069 3068 3067 3066 3065 3064 3064 3063 3062 3062 3062 3062 3061 3061 3061 3061 3061 3062 3061 3061 3060 3059 3059 3058 3058 3059
3066 3066 3067 3067 3067 3067 3067 3067 3067 3067 3068 3068 3068 3069 3069 3070 3070 3071 3071 3071 3071 3071 3071 3072 3073 3074 3074 3074 3074 3074 3074 3075 3075 3074 3074 3075 3075 3075 3075 3075 3075 3074 3073 3073 3072 3072 3071 3070 3070 3069 3069 3069 3069 3068 3067 3066 3065 3064 3063 3063 3063 3062 3061 3060 3059 3058 3057 3056 3055 3055 3055 3055 3054 3053 3053 3053 3053 3053 3053 3053 3053 3053 3053 3052 3051
3062 3062 3062 3062 3062 3062 3062 3062 3062 3062 3063 3063 3063 3064 3064 3064 3065 3066 3066 3066 3066 3067 3067 3067 3068 3069 3069 3069 3069 3069 3070 3069 3069 3069 3069 3070 3070 3070 3069 3069 3069 3068 3068 3067 3067 3066 3065 3065 3064 3064 3064 3063 3063 3062 3061 3060 3058 3057 3056 3056 3056 3055 3055 3054 3053 3052 3052 3050 3049 3049 3049 3048 3047 3046 3046 3045 3044 3044 3045 3045 3044 3045 3045 3045 3045
3058 3058 3058 3058 3058 3058 3058 3057 3057 3058 3058 3059 3059 3059 3059 3059 3060 3060 3061 3061 3061 3061 3062 3062 3062 3063 3064 3064 3063 3064 3064 3064 3064 3064 3065 3065 3065 3064 3063 3063 3063 3063 3063 3062 3062 3061 3060 3060 3059 3058 3058 3057 3057 3056 3055 3053 3052 3051 3050 3049 3049 3048 3047 3047 3046 3046 3045 3044 3043 3042 3042 3042 3041 3041 3040 3039 3038 3037 3037 3037 3037 3036 3036 3036 3037
3055 3055 3055 3054 3054 3054 3053 3053 3053 3053 3053 3054 3054 3054 3054 3055 3055 3055 3055 3055 3055 3056 3056 3057 3057 3058 3058 3058 3057 3058 3058 3058 3059 3059 3059 3059 3059 3058 3058 3058 3058 3058 3058 3057 3056 3056 3055 3054 3054 3053 3052 3051 3050 3049 3048 3047 3045 3044 3043 3043 3042 3042 3041 3040 3040 3040 3039 3037 3036 3035 3035 3035 3035 3034 3034 3033 3032 3031 3031 3030 3030 3029 3029 3029 3029
3051 3051 3051 3050 3050 3050 3050 3049 3049 3048 3048 3048 3049 3049 3049 3050 3050 3050 3050 3050 3050 3050 3051 3051 3052 3052 3052 3052 3052 3053 3052 3053 3053 3054 3053 3053 3053 3053 3053 3053 3053 3053 3053 3052 3051 3050 3049 3049 3049 3048 3046 3045 3043 3042 3041 3039 3038 3037 3036 3036 3035 3034 3034 3034 3034 3033 3032 3031 3030 3029 3028 3028 3027 3027 3027 3026 3026 3025 3023 3023 3024 3023 3022 3022 3021
3047 3047 3046 3046 3046 3045 3045 3045 3044 3044 3044 3043 3043 3044 3044 3044 3044 3044 3044 3045 3045 3045 3045 3045 3046 3046 3046 3046 3047 3047 3047 3047 3048 3048 3047 3048 3048 3048 3049 3049 3049 3048 3048 3047 3045 3045 3043 3043 3043 3042 3041 3039 3038 3036 3034 3032 3030 3029 3028 3028 3027 3027 3027 3026 3026 3025 3023 3023 3023 3023 3022 3022 3021 3020 3019 3019 3019 3017 3015 3016 3016 3016 3015 3014 3013
3043 3042 3042 3041 3041 3040 3040 3039 3039 3039 3038 3038 3038 3038 3038 3038 3038 3038 3039 3039 3039 3039 3040 3040 3040 3041 3041 3041 3042 3042 3042 3042 3042 3042 3043 3043 3044 3044 3045 3045 3044 3043 3042 3041 3040 3039 3038 3037 3036 3036 3035 3034 3033 3031 3028 3026 3024 3022 3021 3020 3019 3019 3019 3018 3017 3015 3014 3014 3015 3014 3014 3014 3013 3013 3012 3012 3012 3011 3009 3008 3007 3007 3007 3007 3006
3037 3036 3036 3036 3035 3035 3034 3034 3034 3033 3033 3033 3033 3033 3033 3033 3033 3033 3033 3033 3033 3034 3034 3035 3035 3035 3036 3037 3037 3037 3037 3037 3037 3038 3038 3039 3040 3040 3041 3040 3039 3039 3038 3036 3035 3034 3033 3032 3031 3029 3027 3027 3026 3025 3023 3020 3018 3016 3014 3012 3011 3011 3010 3008 3007 3006 3005 3005 3005 3005 3005 3004 3004 3003 3003 3003 3003 3003 3002 3001 2999 2998 2998 2998 2997
3031 3031 3030 3029 3029 3028 3028 3028 3027 3027 3027 3027 3027 3027 3028 3027 3027 3027 3028 3028 3028 3028 3029 3030 3030 3031 3031 3032 3032 3031 3032 3032 3033 3034 3034 3035 3036 3036 3036 3035 3035 3034 3033 3032 3031 3029 3028 3027 3025 3023 3021 3020 3019 3017 3016 3014 3012 3010 3008 3006 3004 3003 3001 3000 2998 2997 2996 2996 2996 2996 2995 2995 2994 2994 2993 2993 2992 2992 2992 2991 2991 2990 2990 2990 2988
3025 3025 3024 3023 3022 3022 3021 3021 3021 3021 3021 3021 3021 3021 3022 3022 3022 3022 3022 3022 3023 3023 3024 3025 3025 3025 3026 3026 3026 3026 3027 3028 3029 3029 3030 3031 3032 3032 3031 3031 3030 3029 3028 3026 3025 3024 3023 3021 3019 3018 3016 3014 3012 3010 3009 3007 3005 3003 3001 2999 2997 2995 2993 2992 2990 2989 2988 2988 2987 2986 2986 2985 2985 2985 2984 2983 2983 2982 2981 2981 2980 2980 2980 2980 2980
3019 3018 3017 3016 3016 3015 3015 3014 3014 3013 3014 3014 3014 3015 3016 3016 3016 3016 3017 3017 3018 3018 3019 3020 3020 3020 3020 3021 3022 3023 3024 3024 3025 3026 3027 3027 3028 3027 3026 3026 3025 3024 3022 3021 3020 3018 3017 3016 3014 3011 3010 3008 3005 3003 3001 2999 2997 2995 2993 2992 2990 2988 2986 2984 2982 2981 2980 2980 2978 2978 2977 2977 2976 2975 2974 2973 2973 2972 2971 2970 2969 2969 2969 2969 2970
3012 3010 3010 3009 3009 3009 3008 3007 3007 3007 3007 3007 3008 3009 3010 3010 3010 3011 3012 3012 3013 3013 3014 3015 3015 3016 3016 3018 3019 3020 3021 3022 3022 3023 3023 3023 3023 3022 3022 3021 3020 3019 3018 3016 3014 3013 3011 3009 3007 3005 3003 3000 2998 2995 2993 2991 2989 2987 2985 2983 2981 2979 2977 2976 2974 2973 2972 2971 2970 2969 2969 2968 2967 2966 2965 2964 2963 2962 2961 2960 2959 2959 2958 2958 2959
3003 3003 3003 3002 3002 3002 3001 3000 3000 3000 3000 3001 3002 3003 3003 3004 3005 3005 3006 3008 3008 3009 3010 3011 3012 3013 3014 3015 3016 3017 3018 3019 3019 3019 3020 3020 3019 3018 3017 3016 3015 3014 3013 3011 3009 3007 3005 3003 3001 2998 2996 2993 2990 2988 2986 2983 2981 2979 2978 2976 2973 2971 2969 2967 2966 2964 2963 2962 2961 2961 2961 2960 2960 2959 2957 2956 2955 2953 2952 2951 2950 2950 2949 2949 2949
2995 2995 2995 2995 2995 2994 2994 2994 2994 2994 2995 2995 2996 2997 2998 2999 3000 3000 3001 3003 3004 3005 3007 3008 3009 3011 3012 3013 3014 3014 3015 3016 3016 3017 3017 3016 3016 3015 3014 3013 3011 3010 3008 3006 3004 3002 2999 2997 2994 2991 2989 2986 2983 2981 2978 2976 2974 2972 2970 2967 2965 2963 2961 2959 2957 2956 2954 2954 2953 2953 2953 2953 2952 2951 2950 2948 2947 2946 2945 2944 2943 2942 2942 2941 2941
2987 2988 2988 2988 2987 2987 2987 2987 2987 2988 2989 2990 2991 2992 2993 2994 2995 2996 2997 2998 3000 3002 3003 3005 3007 3008 3010 3011 3012 3012 3013 3013 3013 3014 3014 3013 3012 3011 3010 3009 3007 3006 3004 3001 2999 2996 2994 2991 2988 2985 2982 2979 2976 2973 2971 2968 2966 2963 2961 2959 2956 2954 2952 2950 2949 2948 2947 2946 2946 2946 2947 2946 2945 2944 2943 2942 2942 2942 2941 2940 2938 2937 2937 2936 2934
2981 2981 2980 2980 2979 2979 2980 2980 2981 2983 2984 2985 2987 2988 2989 2990 2991 2993 2994 2996 2997 2999 3001 3003 3005 3006 3008 3009 3010 3010 3010 3011 3011 3011 3010 3010 3009 3008 3007 3005 3003 3001 2999 2997 2994 2991 2988 2984 2981 2978 2975 2972 2969 2966 2963 2960 2957 2954 2952 2950 2948 2945 2943 2942 2941 2940 2940 2939 2939 2940 2940 2940 2939 2938 2938 2936 2936 2937 2937 2935 2933 2933 2932 2931 2929
2974 2973 2972 2972 2971 2972 2973 2974 2976 2978 2979 2981 2983 2984 2985 2987 2989 2991 2992 2994 2996 2998 2999 3001 3003 3004 3005 3007 3007 3008 3008 3008 3008 3008 3008 3007 3006 3005 3003 3001 3000 2997 2995 2992 2989 2986 2983 2979 2975 2972 2968 2965 2961 2958 2955 2951 2949 2946 2944 2941 2939 2938 2936 2934 2933 2933 2933 2933 2933 2933 2934 2934 2933 2933 2932 2931 2932 2932 2931 2929 2928 2928 2927 2926 2924
2968 2966 2965 2964 2965 2966 2968 2970 2972 2974 2975 2977 2979 2981 2983 2985 2987 2989 2990 2992 2994 2996 2998 2999 3001 3003 3004 3005 3005 3006 3006 3006 3006 3005 3004 3004 3003 3001 3000 2998 2995 2993 2991 2987 2984 2980 2976 2973 2969 2965 2961 2957 2954 2950 2947 2944 2942 2939 2937 2935 2933 2931 2929 2928 2927 2927 2926 2927 2927 2928 2928 2928 2928 2928 2927 2926 2926 2926 2925 2924 2923 2923 2922 2921 2921
2962 2961 2960 2960 2961 2962 2964 2967 2969 2971 2973 2974 2977 2979 2981 2983 2985 2988 2990 2992 2993 2995 2997 2999 3000 3002 3002 3003 3003 3004 3004 3003 3003 3003 3002 3001 2999 2998 2996 2994 2991 2988 2985 2982 2979 2975 2971 2967 2963 2958 2954 2950 2947 2943 2941 2938 2935 2933 2931 2929 2927 2925 2924 2923 2922 2922 2921 2922 2922 2923 2923 2923 2923 2922 2922 2921 2921 2921 2920 2919 2918 2918 2917 2917 2917
2959 2958 2958 2959 2960 2961 2963 2965 2967 2969 2972 2974 2977 2980 2982 2983 2985 2987 2989 2991 2993 2995 2997 2998 2999 3000 3001 3001 3002 3002 3002 3002 3001 3000 2999 2998 2996 2994 2992 2989 2987 2984 2980 2977 2973 2969 2965 2961 2956 2952 2948 2944 2940 2937 2934 2931 2929 2927 2925 2923 2922 2920 2919 2918 2918 2917 2917 2917 2917 2918 2918 2917 2917 2917 2917 2916 2916 2916 2915 2915 2914 2914 2913 2913 2913
2958 2958 2959 2960 2961 2962 2963 2965 2968 2970 2973 2975 2978 2980 2982 2984 2986 2987 2989 2991 2993 2995 2996 2997 2998 2999 3000 3000 3000 3000 3000 3000 2999 2998 2996 2994 2993 2990 2988 2985 2982 2980 2977 2973 2968 2963 2959 2955 2951 2947 2943 2939 2936 2932 2929 2927 2924 2922 2920 2918 2917 2916 2915 2914 2914 2913 2913 2913 2913 2913 2913 2913 2913 2913 2912 2912 2912 2912 2911 2911 2910 2910 2910 2909 2909
2959 2960 2961 2963 2964 2965 2967 2968 2971 2973 2975 2977 2979 2981 2983 2985 2987 2988 2990 2991 2993 2994 2996 2997 2998 2998 2999 2999 2999 2999 2998 2997 2996 2995 2993 2991 2989 2987 2984 2981 2979 2975 2972 2967 2963 2959 2955 2951 2947 2943 2939 2935 2932 2928 2925 2923 2920 2918 2916 2914 2913 2912 2911 2910 2910 2909 2909 2908 2908 2909 2909 2909 2909 2909 2909 2908 2908 2908 2907 2907 2907 2906 2906 2906 2906
2962 2963 2964 2965 2967 2969 2970 2972 2974 2976 2977 2979 2981 2982 2984 2985 2987 2989 2990 2992 2993 2995 2996 2997 2997 2998 2998 2997 2997 2996 2996 2995 2993 2992 2990 2988 2986 2984 2981 2979 2975 2972 2968 2965 2961 2957 2953 2948 2944 2940 2935 2932 2928 2924 2921 2919 2916 2914 2913 2911 2910 2909 2908 2907 2906 2905 2905 2905 2905 2905 2905 2905 2905 2905 2905 2905 2904 2903 2903 2903 2902 2902 2901 2901 2901
2965 2966 2967 2968 2969 2971 2973 2974 2976 2977 2979 2980 2982 2983 2985 2986 2988 2989 2991 2992 2993 2994 2995 2996 2996 2996 2996 2995 2995 2994 2993 2992 2990 2989 2987 2985 2983 2981 2978 2975 2972 2969 2966 2962 2958 2954 2950 2945 2941 2936 2932 2928 2925 2921 2918 2915 2913 2911 2910 2908 2907 2906 2905 2904 2903 2902 2902 2901 2901 2901 2902 2902 2902 2901 2901 2900 2899 2899 2898 2898 2897 2897 2896 2896 2897
2968 2969 2970 2971 2971 2973 2975 2976 2978 2979 2981 2982 2983 2985 2986 2987 2989 2990 2991 2992 2993 2994 2994 2994 2994 2994 2994 2993 2993 2992 2991 2989 2988 2987 2985 2983 2980 2978 2975 2973 2970 2966 2963 2959 2955 2951 2947 2942 2938 2933 2929 2925 2922 2918 2915 2913 2910 2909 2907 2906 2904 2903 2902 2901 2900 2900 2899 2899 2898 2899 2899 2898 2898 2897 2896 2895 2894 2894 2893 2892 2892 2891 2891 2891 2892
2971 2971 2972 2972 2973 2975 2976 2978 2979 2981 2982 2983 2985 2986 2987 2989 2990 2991 2991 2992 2993 2993 2993 2993 2993 2992 2992 2991 2991 2990 2989 2987 2986 2984 2982 2980 2978 2976 2974 2971 2967 2964 2960 2957 2953 2948 2944 2939 2934 2930 2926 2923 2919 2916 2913 2910 2908 2906 2904 2903 2901 2900 2899 2898 2897 2897 2896 2896 2896 2896 2895 2895 2893 2892 2891 2890 2889 2888 2887 2887 2886 2886 2886 2887 2888
2973 2973 2973 2974 2975 2976 2978 2979 2981 2982 2983 2984 2986 2987 2988 2989 2990 2991 2991 2992 2992 2992 2992 2992 2992 2991 2991 2990 2990 2988 2987 2985 2984 2982 2981 2980 2978 2975 2972 2969 2966 2962 2959 2955 2951 2946 2941 2936 2932 2927 2924 2920 2917 2913 2910 2908 2906 2904 2902 2900 2899 2898 2897 2896 2895 2894 2894 2894 2893 2893 2892 2891 2889 2888 2887 2886 2885 2883 2883 2882 2882 2882 2882 2883 2884
2974 2975 2975 2976 2976 2977 2979 2980 2982 2983 2984 2985 2986 2987 2988 2989 2990 2991 2991 2991 2991 2992 2992 2992 2991 2991 2991 2990 2988 2987 2986 2985 2984 2983 2981 2979 2976 2973 2970 2967 2964 2960 2957 2953 2949 2944 2939 2934 2929 2925 2922 2918 2915 2911 2908 2906 2903 2902 2900 2898 2897 2896 2895 2894 2893 2893 2892 2892 2891 2890 2889 2888 2886 2884 2883 2882 2881 2880 2879 2879 2879 2879 2879 2880 2880
2975 2976 2977 2977 2978 2978 2980 2981 2982 2984 2985 2986 2987 2988 2988 2989 2990 2990 2991 2991 2991 2991 2991 2991 2991 2990 2989 2988 2987 2986 2986 2985 2984 2982 2980 2977 2975 2972 2969 2965 2962 2958 2955 2951 2946 2942 2937 2932 2928 2924 2920 2917 2913 2910 2907 2904 2902 2900 2898 2896 2895 2894 2893 2892 2892 2891 2891 2891 2890 2889 2888 2886 2884 2882 2881 2879 2879 2878 2877 2877 2877 2877 2877 2877 2878
2976 2977 2978 2979 2979 2980 2981 2982 2983 2984 2985 2986 2987 2988 2989 2989 2990 2990 2990 2991 2991 2991 2990 2990 2990 2989 2988 2988 2987 2986 2986 2984 2983 2980 2978 2976 2973 2971 2967 2964 2960 2957 2953 2949 2944 2940 2935 2931 2927 2922 2919 2915 2911 2908 2905 2902 2900 2898 2896 2895 2894 2892 2892 2891 2891 2891 2890 2890 2889 2888 2887 2885 2884 2881 2880 2879 2878 2878 2877 2877 2877 2876 2876 2877 2877
2977 2978 2979 2980 2981 2981 2982 2983 2984 2985 2986 2987 2988 2988 2989 2989 2990 2990 2990 2990 2990 2990 2990 2989 2989 2989 2988 2988 2987 2986 2985 2983 2981 2979 2977 2974 2972 2969 2966 2963 2959 2955 2951 2947 2943 2939 2934 2930 2926 2922 2917 2914 2910 2907 2904 2901 2899 2897 2895 2894 2893 2891 2891 2890 2890 2890 2890 2889 2889 2888 2887 2886 2884 2882 2881 2880 2879 2878 2878 2877 2877 2876 2876 2876 2877
2978 2979 2980 2981 2981 2982 2983 2984 2985 2986 2986 2987 2988 2988 2989 2989 2990 2990 2990 2990 2989 2989 2989 2989 2989 2989 2988 2988 2987 2985 2984 2982 2980 2977 2975 2973 2971 2968 2965 2962 2958 2954 2951 2947 2942 2938 2934 2930 2926 2921 2917 2913 2910 2907 2904 2901 2898 2896 2894 2893 2892 2891 2890 2890 2890 2890 2889 2889 2889 2888 2887 2886 2885 2884 2882 2881 2880 2879 2878 2878 2877 2877 2877 2877 2878
2979 2980 2980 2981 2982 2983 2983 2984 2985 2986 2987 2987 2988 2988 2989 2989 2989 2989 2989 2989 2989 2989 2989 2989 2989 2988 2988 2987 2986 2984 2982 2980 2978 2976 2974 2972 2970 2967 2964 2961 2957 2954 2950 2946 2942 2938 2934 2929 2925 2921 2917 2914 2910 2907 2904 2901 2899 2896 2894 2892 2891 2890 2890 2890 2890 2890 2889 2889 2889 2888 2887 2886 2885 2885 2884 2883 2882 2881 2880 2880 2879 2879 2879 2879 2881
2980 2980 2980 2982 2983 2983 2984 2985 2986 2986 2987 2988 2988 2988 2989 2989 2989 2989 2989 2989 2989 2988 2988 2988 2988 2988 2987 2986 2985 2983 2981 2979 2977 2975 2973 2971 2969 2967 2964 2960 2957 2953 2950 2946 2942 2938 2933 2929 2925 2922 2918 2914 2910 2907 2905 2902 2899 2896 2894 2893 2891 2891 2890 2890 2890 2890 2890 2889 2889 2888 2887 2886 2886 2885 2885 2885 2884 2883 2883 2882 2882 2882 2882 2883 2884
2980 2980 2981 2982 2983 2984 2985 2985 2986 2987 2987 2987 2988 2988 2988 2989 2989 2989 2989 2989 2989 2988 2988 2988 2988 2987 2986 2985 2984 2982 2980 2978 2976 2974 2973 2971 2969 2966 2964 2960 2957 2953 2950 2946 2942 2938 2934 2930 2926 2922 2918 2914 2911 2908 2905 2902 2899 2896 2895 2893 2892 2891 2891 2890 2890 2890 2890 2890 2889 2889 2888 2887 2886 2886 2885 2885 2885 2884 2884 2884 2884 2885 2885 2886 2887
2980 2981 2982 2983 2984 2984 2985 2985 2986 2986 2987 2987 2988 2988 2988 2989 2989 2989 2989 2989 2988 2988 2988 2987 2987 2986 2985 2984 2983 2981 2979 2977 2976 2974 2972 2970 2968 2966 2963 2960 2957 2953 2950 2946 2943 2939 2936 2931 2927 2923 2920 2915 2912 2909 2906 2903 2900 2897 2895 2894 2892 2892 2891 2891 2891 2891 2891 2890 2890 2889 2888 2887 2886 2885 2885 2885 2885 2885 2885 2885 2885 2886 2887 2888 2889
2981 2981 2982 2983 2983 2984 2984 2985 2985 2986 2986 2987 2987 2988 2988 2988 2989 2989 2988 2988 2988 2987 2987 2986 2986 2985 2984 2983 2982 2980 2978 2977 2975 2973 2972 2970 2968 2966 2963 2960 2957 2954 2950 2947 2944 2940 2937 2933 2928 2924 2921 2917 2913 2910 2907 2904 2901 2898 2896 2895 2893 2892 2892 2892 2891 2891 2891 2891 2890 2889 2888 2887 2886 2885 2885 2885 2885 2885 2885 2885 2886 2886 2887 2888 2889
2981 2981 2982 2982 2983 2983 2984 2984 2985 2985 2986 2986 2987 2987 2988 2988 2988 2988 2988 2987 2987 2986 2986 2985 2985 2984 2983 2982 2981 2979 2978 2976 2975 2973 2971 2970 2968 2966 2963 2961 2957 2954 2951 2948 2944 2941 2938 2934 2930 2926 2922 2919 2915 2912 2909 2906 2903 2900 2898 2896 2895 2893 2893 2892 2892 2892 2892 2891 2891 2890 2889 2887 2886 2886 2886 2886 2886 2886 2886 2886 2886 2887 2888 2889 2890
2981 2981 2982 2982 2983 2983 2984 2984 2985 2985 2986 2986 2986 2987 2987 2987 2987 2987 2987 2987 2986 2985 2985 2984 2984 2983 2982 2981 2980 2978 2977 2976 2974 2972 2971 2969 2968 2966 2964 2961 2958 2955 2951 2948 2945 2942 2939 2936 2932 2928 2924 2921 2917 2914 2912 2909 2905 2902 2900 2898 2897 2895 2894 2893 2893 2893 2892 2892 2892 2891 2890 2889 2889 2888 2888 2888 2888 2888 2888 2888 2888 2889 2889 2890 2891